This demonstration page uses our WeatherBlox Daily Observations layout. Learn more.

Left ArrowRight Arrow

Hourly Observations for March 23, 2021

Temp ( °F °C ) Dew Point ( °F °C ) Humidity (%) Winds ( mph kmh ) Pressure ( in mb ) Visibility ( mi km ) Precip ( " mm )
12:15 am 00:15 Cloudy with Light Rain 37 2.6 36 2.1 97 97 N 16 26 29.77 1008 7 11 N/A
12:35 am 00:35 Cloudy with Drizzle 37 2.7 36 2.2 97 97 N 14 22 29.77 1008 5 8 N/A
12:55 am 00:55 Cloudy with Light Rain 37 2.8 36 2.3 97 97 N 15 24 29.76 1008 5 8 0.01 0.25
1:15 am 01:15 Cloudy with Light Rain 37 2.8 36 2.3 97 97 N 15 24 29.75 1007 5 8 0.01 0.25
1:35 am 01:35 Cloudy with Rain 37 2.8 36 2.3 97 97 N 17 28 29.74 1007 3 5 0.04 1.02
1:55 am 01:55 Cloudy with Rain 37 2.8 36 2.3 97 97 N 14 22 29.74 1007 3 4 0.08 2.03
2:15 am 02:15 Cloudy with Light Rain 37 2.9 36 2.4 97 97 N 15 24 29.73 1007 4 6 0.01 0.25
2:35 am 02:35 Cloudy with Rain 38 3.1 37 2.6 97 97 N 18 30 29.71 1006 7 11 0.02 0.51
2:55 am 02:55 Cloudy with Light Rain 38 3.2 37 2.7 97 97 N 20 31 29.69 1006 7 11 0.03 0.76
3:15 am 03:15 Cloudy with Rain 38 3.3 37 2.7 96 96 N 15 24 29.68 1005 10 16 N/A
3:35 am 03:35 Cloudy with Drizzle 38 3.3 37 2.7 96 96 N 16 26 29.67 1005 7 11 0.01 0.25
3:55 am 03:55 Cloudy with Light Rain 38 3.3 37 2.7 96 96 N 18 30 29.66 1004 7 11 0.03 0.76
4:15 am 04:15 Cloudy with Light Rain 38 3.5 37 3 97 97 N 16 26 29.66 1004 7 11 0.01 0.25
4:35 am 04:35 Cloudy with Rain 39 3.7 38 3.1 96 96 N 18 30 29.65 1004 7 11 0.03 0.76
4:55 am 04:55 Cloudy with Rain 39 3.8 38 3.2 96 96 N 20 31 29.65 1004 7 11 0.06 1.52
5:15 am 05:15 Cloudy with Rain 39 4 38 3.3 95 95 N 17 28 29.64 1004 7 11 0.01 0.25
5:35 am 05:35 Cloudy with Light Rain 39 4 38 3.5 97 97 N 18 30 29.64 1004 5 8 0.04 1.02
5:55 am 05:55 Cloudy with Rain 39 4 38 3.4 96 96 N 18 30 29.63 1003 7 11 0.07 1.78
6:15 am 06:15 Cloudy with Light Rain 39 4.1 38 3.5 96 96 N 18 30 29.63 1003 5 8 0.02 0.51
6:35 am 06:35 Cloudy with Rain 39 4.1 38 3.5 96 96 N 21 33 29.64 1004 7 11 0.06 1.52
6:55 am 06:55 Cloudy with Rain 40 4.2 38 3.5 95 95 N 20 31 29.63 1004 7 11 0.09 2.29
7:15 am 07:15 Cloudy with Rain 40 4.2 38 3.6 96 96 N 21 33 29.62 1003 7 11 0.03 0.76
7:35 am 07:35 Cloudy with Rain 40 4.3 38 3.6 95 95 N 22 35 29.62 1003 7 11 0.07 1.78
7:55 am 07:55 Cloudy with Light Rain 40 4.5 39 3.7 95 95 N 20 31 29.62 1003 10 16 0.10 2.54
8:15 am 08:15 Cloudy with Light Rain 40 4.5 39 3.7 95 95 N 20 31 29.62 1003 10 16 0.02 0.51
8:35 am 08:35 Cloudy with Rain 40 4.5 39 3.8 95 95 N 17 28 29.62 1003 10 16 0.04 1.02
8:55 am 08:55 Cloudy with Rain 40 4.6 39 4 96 96 N 22 35 29.62 1003 10 16 0.06 1.52
9:15 am 09:15 Cloudy with Rain 41 4.8 39 4.1 95 95 N 24 39 29.62 1003 7 11 0.03 0.76
9:35 am 09:35 Cloudy with Rain 41 4.8 39 4.1 95 95 N 21 33 29.62 1003 7 11 0.07 1.78
9:55 am 09:55 Cloudy with Rain 41 4.8 39 4.1 95 95 N 22 35 29.62 1003 7 11 0.10 2.54
10:15 am 10:15 Cloudy with Light Rain 41 5 39 4.1 94 94 N 20 31 29.63 1003 3 5 0.04 1.02
10:35 am 10:35 Cloudy with Rain 41 5 40 4.3 95 95 N 21 33 29.63 1003 7 11 0.08 2.03
10:55 am 10:55 Cloudy with Rain 41 5.1 40 4.3 95 95 N 21 33 29.63 1003 7 11 0.12 3.05
11:15 am 11:15 Cloudy with Light Rain 42 5.5 40 4.6 94 94 N 15 24 29.62 1003 10 16 0.02 0.51
11:35 am 11:35 Cloudy with Light Rain 42 5.5 40 4.7 95 95 N 21 33 29.62 1003 10 16 0.03 0.76
11:55 am 11:55 Cloudy with Light Rain 42 5.7 41 4.9 95 95 N 21 33 29.62 1003 10 16 0.04 1.02
12:15 pm 12:15 Cloudy with Light Rain 43 6 41 5 93 93 N 21 33 29.62 1003 10 16 N/A
12:35 pm 12:35 Cloudy with Light Rain 43 6 41 5 93 93 N 18 30 29.62 1003 10 16 0.01 0.25
12:55 pm 12:55 Cloudy with Light Rain 43 6 41 5 93 93 N 16 26 29.61 1003 10 16 0.02 0.51
1:15 pm 13:15 Cloudy with Light Rain 43 6.1 41 5 93 93 N 16 26 29.61 1003 10 16 N/A
1:35 pm 13:35 Cloudy with Light Rain 43 6.3 41 5.1 92 92 N 17 28 29.61 1003 10 16 0.01 0.25
1:55 pm 13:55 Cloudy with Light Rain 43 6.3 41 4.8 90 90 N 22 35 29.61 1003 10 16 0.01 0.25
2:15 pm 14:15 Cloudy with Light Rain 43 6.3 40 4.7 90 90 N 20 31 29.61 1003 10 16 N/A
2:35 pm 14:35 Cloudy with Light Rain 43 6.2 40 4.5 89 89 N 18 30 29.61 1003 10 16 0.01 0.25
2:55 pm 14:55 Cloudy with Drizzle 43 6.1 40 4.3 88 88 N 25 41 29.61 1003 10 16 0.01 0.25
3:15 pm 15:15 Cloudy with Rain 42 5.7 39 4.1 90 90 N 23 37 29.62 1003 7 11 0.01 0.25
3:35 pm 15:35 Cloudy with Light Rain 42 5.6 39 4 90 90 NNW 23 37 29.63 1003 10 16 0.02 0.51
3:55 pm 15:55 Cloudy with Light Rain 42 5.5 39 4 90 90 NNW 24 39 29.63 1003 10 16 0.03 0.76
4:15 pm 16:15 Cloudy with Light Rain 42 5.5 39 3.8 89 89 NNW 22 35 29.64 1004 10 16 0.02 0.51
4:35 pm 16:35 Cloudy with Light Rain 42 5.5 39 3.9 90 90 NNW 21 33 29.64 1004 10 16 0.03 0.76
4:55 pm 16:55 Cloudy with Light Rain 41 5.2 39 3.7 90 90 NNW 26 43 29.66 1004 10 16 0.04 1.02
5:15 pm 17:15 Cloudy with Light Rain 41 5.1 38 3.6 90 90 NNW 18 30 29.67 1005 10 16 0.01 0.25
5:35 pm 17:35 Cloudy with Light Rain 41 5 38 3.5 90 90 NNW 23 37 29.67 1005 7 11 0.02 0.51
5:55 pm 17:55 Cloudy with Light Rain 41 4.8 38 3.2 90 90 NNW 25 41 29.67 1005 10 16 0.03 0.76
6:15 pm 18:15 Cloudy with Rain 41 4.8 38 3.2 90 90 NNW 28 44 29.68 1005 10 16 N/A
6:35 pm 18:35 Cloudy with Drizzle 40 4.6 37 3 89 89 NNW 28 44 29.69 1005 10 16 N/A
6:55 pm 18:55 Cloudy with Rain 40 4.5 37 3 90 90 NNW 20 31 29.70 1006 10 16 N/A
7:15 pm 19:15 Cloudy with Rain 40 4.3 37 2.7 89 89 NNW 24 39 29.71 1006 10 16 N/A
7:35 pm 19:35 Cloudy with Drizzle 40 4.2 37 2.5 89 89 NNW 25 41 29.72 1007 10 16 N/A
7:55 pm 19:55 Cloudy with Drizzle 39 4.1 37 2.5 89 89 NNW 23 37 29.74 1007 10 16 N/A
8:15 pm 20:15 Cloudy with Drizzle 39 4.1 36 2.3 88 88 N 26 43 29.74 1007 10 16 N/A
8:35 pm 20:35 Cloudy 39 4 36 2.1 88 88 N 24 39 29.75 1007 10 16 N/A
8:55 pm 20:55 Cloudy 39 4 36 2.1 88 88 N 25 41 29.76 1008 10 16 N/A
9:15 pm 21:15 Cloudy with Drizzle 39 4 36 2 87 87 NNW 25 41 29.78 1008 10 16 N/A
9:35 pm 21:35 Cloudy 39 4 36 2 87 87 N 21 33 29.79 1009 10 16 N/A
9:55 pm 21:55 Cloudy 39 4 36 2 87 87 NNW 20 31 29.80 1009 10 16 N/A
10:15 pm 22:15 Cloudy 39 4 36 2 87 87 NNW 23 37 29.80 1009 10 16 N/A
10:35 pm 22:35 Cloudy 39 4 36 2 87 87 NNW 23 37 29.81 1009 10 16 N/A
10:55 pm 22:55 Cloudy 39 4.1 36 2 86 86 NNW 18 30 29.82 1010 10 16 N/A
11:15 pm 23:15 Cloudy 39 4.1 36 2 86 86 NNW 26 43 29.82 1010 10 16 N/A
11:35 pm 23:35 Cloudy with Drizzle 39 4.1 36 2 86 86 NNW 24 39 29.83 1010 10 16 N/A
11:55 pm 23:55 Cloudy with Drizzle 39 4 35 1.9 86 86 N 21 33 29.83 1010 10 16 N/A

Powered by AerisWeather